DECAYED

H-2A DEB, 38345 (Decayed)

Orbit data source: Space-Track

H-2A DEB, 38345 was space debris in LEO originally from a launch on Thu, 17 May 2012 UTC launched from the Tanegashima Space Center (TNSTA). Debris objects in space refer to the collection of defunct objects orbiting the Earth. Examples of debris include non-operational satellites, rocket bodies, and fragments generated from explosions, collisions, or faulty payload assembly.

Not visible in the next 10 days
Identifier
38345, 2012-025F
Orbit
Decayed
Country
Flag of JPJP / JPN
Related business
Manufacturer
Kawasaki
Mission
Decayed spacecraft
Bus & Motor
Unknown
Mass
~200 kg wet, ~200 kg dry
Launch date (UTC)
2012-05-17 (14 years ago)
Launch vehicle
Unknown
Launch site
Tanegashima Space Center (TNSTA)
Object type
Payload
Rocket body
Debris
Shape & HBR
Cone, 2.9 m
Radar Cross Section
6.654 m², Large (>1 m²)

Expand to show TLE details & history
Last TLE update: 1 year ago

TLE from 1 year ago
0 H-2A DEB
1 38345U 12025F   25201.28147744  .24444827  30553-5  17411-2 0  9992
2 38345  98.1989  29.7628 0015054 264.9832 206.9714 16.39688214714191
Epoch: 2025-07-20T06:45Z
TLE epoch observation values (Epoch: 2025-07-20T06:45:19.650Z)
Latitude
66.80159°
Longitude
-170.3476°
Altitude
186.984 km
Speed
7.795 km/s
True Right ascension
15h 17m 09s
True Declination
66° 39' 57"
Sunlit
Object was in daylight at epoch
Visualization orbit readout
Latitude
Unknown
Longitude
Unknown
Altitude
Unknown
Speed
Unknown
Apparent Right ascension
Unknown
Apparent Declination
Unknown
Sunlit
N/A
Visualization observer readout
Local Sidereal Time
14:40:27
Azimuth
Unknown
Elevation
Unknown
Doppler factor
Unknown
Orbital elements
Apogee altitude
173.326 km
Perigee altitude
153.63 km
Semi-major axis
6,541.615 km
Eccentricity
0.00151
Inclination
98.1989°
RAAN
29.7628°
Arg. of periapsis
264.9832°
True anomaly
206.89329°
Mean anomaly
206.9714°
Eccentric anomaly
206.93233°
Mean motion
4.10219 °/min
Orbital period
87.76 mins
BSTAR
0.0017411
Loading maneuver chart data...
Computing Atmospheric mass density...
Loading historical data...
Loading historical data...
Loading historical data...
Loading historical data...
Loading historical data...
Loading historical data...
Loading historical data...

Documentation

Showing up to 5 results
|